Preview of NWS' New Version of Forecast
This preview is not operational and should not be used for support decisions.
Latest weather observations around

Livermore, Livermore Municipal Airport (KLVK)

Using English Units (Switch to International System of Units)
Date/ Time (PDT) Wind (mph) Vis. (mi) Weather Sky Cond. Temp (°F) Rel. Humidity Wind Chill (°F) Heat Index (°F) Pressure Precip. (in)
Air Dwpt 6 hour Altimeter (inHg) Sea level (inHg) 1 hr 3 hr 6 hr
Max Min
May 20 05:53 Calm 9 Cloudy SCT006 OVC022 49 47     93%     29.91 29.91      
May 20 05:38 Calm 9 Cloudy BKN006 OVC022 48 46     93%     29.91        
May 20 05:23 WNW 3 9 Cloudy SCT005 OVC021 48 46     93% 47   29.92        
May 20 04:53 Calm 8 Cloudy OVC005 49 47     93%     29.91 29.91      
May 20 04:42 Calm 7 Cloudy OVC004 48 47     96%     29.91        
May 20 04:27 Calm 7 Mostly Cloudy BKN005 BKN020 47 45     93%     29.91        
May 20 04:22 Calm 8 Partly Cloudy SCT005 SCT020 48 46     93%     29.91        
May 20 03:53 Calm 10 Partly Cloudy SCT021 48 46     93%     29.9 29.9      
May 20 03:33 Calm 10 Partly Cloudy SCT021 48 46     93%     29.9        
May 20 02:53 Calm 10 Cloudy BKN019 OVC024 49 47     93%     29.89 29.88      
May 20 01:53 Calm 10 Cloudy OVC015 49 47     93%     29.89 29.88      
May 20 01:43 E 3 10 Cloudy FEW009 OVC015 49 47     93% 48   29.88        
May 20 01:38 Calm 10 Mostly Cloudy BKN013 49 47     93%     29.89        
May 20 01:29 Calm 10 Mostly Cloudy SCT010 BKN016 49 47     93%     29.89        
May 20 01:20 Calm 10 Partly Cloudy FEW016 SCT027 49 47     93%     29.89        
May 20 00:53 Calm 10 Mostly Cloudy FEW021 BKN028 49 48     97%     29.89 29.88      
May 20 00:50 Calm 10 Mostly Cloudy SCT021 BKN030 50 48     94%     29.89        
May 19 23:53 E 3 10 Cloudy OVC022 50 48     93%     29.89 29.88      
May 19 22:53 Calm 10 Mostly Cloudy BKN022 50 47     89%     29.88 29.88     0
May 19 22:31 W 3 10 Partly Cloudy SCT022 50 47     89%     29.88        
May 19 22:18 Calm 10 Mostly Cloudy BKN024 50 47     89%     29.87        
May 19 21:53 S 3 10 Clear CLR 51 47     86%     29.87 29.87      
May 19 20:53 SW 5 10 Mostly Cloudy FEW060 BKN075 52 47     83%     29.86 29.86      
May 19 19:53 SSW 7 10 Cloudy SCT047 BKN065 OVC085 53 48     83%     29.84 29.83 0 0  
May 19 18:53 WSW 8 10 Cloudy SCT026 BKN050 OVC070 55 46     72%     29.82 29.82 0    
May 19 18:00 SW 7 10 Cloudy SCT026 BKN050 OVC070 55 46     72%     29.81   0    
May 19 17:53 W 9 8 Light Rain BKN026 BKN050 OVC070 55 46     72%     29.82 29.81 0    
May 19 16:53 S 7 3 Light Rain BKN025 BKN041 OVC055 54 48     80%     29.81 29.81 0   0
May 19 16:46 SSW 5 2.5 Light Rain FEW022 BKN027 OVC047 53 46     77%     29.81   0    
May 19 15:53 SSW 7 10 Mostly Cloudy SCT035 BKN060 56 46     69%     29.8 29.8      
May 19 14:53 SSW 8 10 Partly Cloudy FEW070 SCT085 58 48     70%     29.81 29.81 0    
May 19 13:53 S 8 6 Light Rain BKN055 BKN070 OVC090 52 46     80%     29.81 29.81 0 0  
May 19 13:32 SSW 11 6 Light Rain SCT046 BKN065 OVC090 52 46     80%     29.81   0    
May 19 12:53 SSW 13 10 Partly Cloudy SCT037 SCT055 58 45     62%     29.79 29.78 0    
May 19 11:53 SSW 13 10 Partly Cloudy FEW048 SCT060 59 48     67%     29.79 29.78      
May 19 10:53 SSW 13 10 Mostly Cloudy FEW025 SCT040 BKN047 57 48     72%     29.78 29.77     0
May 19 09:53 SSE 5 10 Mostly Cloudy BKN045 51 46     83%     29.78 29.78      
May 19 08:53 Calm 10 Cloudy FEW045 BKN050 OVC100 48 45     89%     29.77 29.77 0    
May 19 08:23 S 7 7 Light Rain BKN048 OVC070 48 45     89% 45   29.76   0    
May 19 08:13 SSE 8 2 Light Rain and Fog/Mist OVC044 49 45     86% 45   29.76   0    
May 19 07:59 SSW 8 3 Rain OVC046 50 45     83%     29.76   0    
May 19 07:53 SW 11 1.75 Rain and Fog/Mist FEW027 OVC044 49 46     90% 44   29.76 29.75 0 0  
May 19 07:08 W 6 1.75 Rain OVC037 51 46     83%     29.74   0    
May 19 06:53 Calm 9 Light Rain BKN037 BKN110 51 46     83%     29.73 29.72 0    
May 19 05:53 S 3 10 Clear CLR 49 46     90% 48   29.72 29.72      
May 19 04:53 SSW 9 10 Clear CLR 51 48     89%     29.73 29.72     0
May 19 03:53 SW 7 10 Clear CLR 51 48     89%     29.74 29.74      
May 19 02:53 SSW 8 10 Mostly Cloudy BKN041 BKN049 52 50     93%     29.74 29.74 0    
May 19 02:00 WSW 9 7 Light Rain FEW029 BKN048 OVC060 52 50     93%     29.75   0    
May 19 01:53 WSW 9 2.5 Rain and Fog/Mist FEW037 BKN046 OVC065 52 50     93%     29.75 29.75 0 0  
May 19 01:45 SW 11 2 Rain and Fog/Mist SCT037 OVC048 52 50     93%     29.75   0    
May 19 01:30 WSW 9 4 Light Rain and Fog/Mist FEW041 BKN050 OVC065 52 50     93%     29.75   0    
May 19 01:23 SW 9 2.5 Light Rain and Fog/Mist BKN055 OVC070 52 50     93%     29.75   0    
May 19 00:53 WSW 9 4 Light Rain and Fog/Mist BKN033 OVC045 52 50     93%     29.75 29.75 0    
May 18 23:53 Calm 10 Cloudy OVC041 53 51     93%     29.75 29.75 0    
May 18 23:01 Calm 4 Light Rain and Fog/Mist FEW024 BKN042 OVC049 53 51     93%     29.76   0    
May 18 22:53 Calm 2 Light Rain and Fog/Mist FEW026 BKN041 OVC050 54 50     86%     29.76 29.76 0   0
May 18 21:53 ESE 3 10 Cloudy BKN039 BKN049 OVC065 53 51     93%     29.77 29.76 0    
May 18 20:53 Calm 3 Light Rain and Fog/Mist OVC040 54 51     90%     29.78 29.77 0    
May 18 19:53 E 7 10 Cloudy OVC042 54 50     86%     29.79 29.79 0 0  
May 18 19:38 Calm 5 Light Rain and Fog/Mist OVC042 53 50     89%     29.8   0    
May 18 19:24 NW 5 2.5 Light Rain and Fog/Mist FEW038 OVC048 54 50     86%     29.8   0    
May 18 18:53 WNW 6 10 Mostly Cloudy SCT055 SCT065 BKN080 53 50     89%     29.8 29.8 0    
May 18 17:53 SE 3 5 Light Rain and Fog/Mist OVC070 52 49     89%     29.84 29.84 0    
May 18 16:53 ENE 3 2.5 Light Rain BKN050 OVC070 52 47     83%     29.89 29.89 0   0
May 18 16:50 ENE 5 2.5 Light Rain BKN050 OVC070 52 46     82%     29.89   0    
May 18 15:53 Calm 10 Cloudy OVC045 53 45     74%     29.91 29.91 0    
May 18 14:53 SSW 5 7 Light Rain FEW048 OVC065 53 44     71%     29.93 29.93 0    
May 18 13:53 S 6 4 Light Rain BKN060 OVC075 52 47     83%     29.94 29.93 0 0  
May 18 13:00 NW 5 2 Light Rain OVC065 53 48     83%     29.95   0    
May 18 12:53 WNW 8 3 Rain OVC065 53 47     80%     29.95 29.94 0    
May 18 11:53 W 13 10 Mostly Cloudy SCT085 BKN110 59 42     53%     29.91 29.91      
May 18 10:53 W 5 10 Clear CLR 58 43     57%     29.91 29.9      
May 18 09:53 WNW 5 10 Clear CLR 57 45     64%     29.91 29.91      
May 18 08:53 Calm 10 Clear CLR 54 46     74%     29.93 29.93      
May 18 07:53 Calm 10 Clear CLR 51 46     83%     29.95 29.94      
May 18 06:53 NE 6 10 Clear CLR 47 44     90% 44   29.95 29.95      
May 18 05:53 E 6 10 Clear CLR 46 43     89% 43   29.95 29.95      
May 18 05:24 Calm 10 Partly Cloudy SCT022 48 45     89%     29.96        
May 18 05:03 Calm 10 Mostly Cloudy BKN022 47 44     90%     29.97        
May 18 04:53 NNW 3 10 Partly Cloudy SCT021 47 44     90% 46   29.98 29.97      
May 18 04:28 Calm 10 Partly Cloudy SCT021 48 44     86%     29.98        
May 18 03:53 Calm 10 Mostly Cloudy BKN018 48 44     86%     29.99 29.98      
May 18 03:46 Calm 10 Mostly Cloudy BKN018 47 44     90%     29.99        
May 18 02:53 Calm 10 Clear CLR 49 44     83%     29.99 29.98      
May 18 02:01 Calm 10 Mostly Clear FEW020 49 45     86%     30.02        
May 18 01:53 Calm 10 Mostly Cloudy BKN020 49 45     86%     30.02 30.02      
May 18 01:51 Calm 10 Mostly Cloudy BKN020 48 45     87%     30.02        
May 18 00:53 Calm 10 Clear CLR 49 45     86%     30.05 30.05      
May 17 23:53 S 3 10 Clear CLR 50 45     83%     30.06 30.06      
May 17 22:53 S 5 10 Clear CLR 51 45     79%     30.08 30.07      
May 17 21:53 W 7 10 Clear CLR 51 45     79%     30.09 30.08      
May 17 20:53 W 9 10 Clear CLR 53 45     74%     30.09 30.09      
May 17 19:53 W 11 10 Clear CLR 55 43     64%     30.09 30.09      
May 17 18:53 W 11 10 Clear CLR 57 43     59%     30.09 30.09      
May 17 17:53 W 10 10 Clear CLR 61 43     52%     30.1 30.09      
May 17 16:53 W 11 10 Mostly Clear FEW044 63 43     48%     30.1 30.1      
May 17 15:53 WSW 7 10 Mostly Clear FEW047 64 43     46%     30.1 30.1      
May 17 14:53 WNW 9 10 Mostly Cloudy BKN045 63 43     48%     30.12 30.11      
May 17 13:53 W 8 10 Mostly Cloudy BKN046 63 43     48%     30.12 30.12      
May 17 12:53 WSW 9 10 Mostly Cloudy BKN042 60 44     55%     30.13 30.13      
May 17 11:53 W 9 10 Mostly Cloudy BKN040 59 44     58%     30.14 30.13      
May 17 10:53 W 11 10 Cloudy OVC040 57 44     62%     30.13 30.12      
May 17 09:53 W 13 10 Cloudy SCT029 OVC037 57 45     64%     30.12 30.12      
May 17 09:49 W 11 10 Mostly Cloudy BKN029 BKN037 55 45     67%     30.12        
May 17 09:21 W 11 10 Mostly Cloudy SCT024 SCT033 BKN040 57 47     69%     30.12        
May 17 08:53 WSW 8 10 Mostly Cloudy BKN022 BKN029 BKN038 54 47     77%     30.12 30.12      
May 17 07:53 SSW 9 8 Cloudy BKN015 BKN021 OVC036 53 47     80%     30.11 30.11      
May 17 07:38 SSW 8 9 Mostly Cloudy BKN021 BKN039 53 47     80%     30.11        
May 17 06:53 SSW 8 8 Mostly Cloudy BKN032 51 46     83%     30.09 30.09      
May 17 06:35 SW 9 8 Cloudy FEW021 OVC031 51 45     79%     30.09        
May 17 06:19 WSW 9 8 Cloudy FEW021 BKN029 OVC050 51 45     79%     30.08        
May 15 11:53 W 10 10 Clear CLR 63 50     63%     30.04 30.03      
May 15 10:53 WSW 10 10 Cloudy OVC022 62 51     67%     30.04 30.03      
May 14 08:53 W 8 10 Cloudy OVC017 56 51     84%     29.99 29.99      
May 14 04:53 W 9 10 Cloudy OVC015 53 51     93%     29.97 29.97      
May 13 18:53 WNW 16 10 Clear CLR 62 53     72%     29.95 29.95      
May 13 04:53 WNW 3 10 Clear CLR 52 51     97%     29.94 29.93      
May 12 21:53 WNW 10 10 Clear CLR 58 51     78%     29.91 29.91      
May 12 00:53 6 10 Clear CLR 69 34     27%     29.8 29.78      
May 11 19:53 N 10 10 Clear CLR 76        %     29.74 29.73      
Jun 12 05:48 SW 9 10 Mostly Cloudy SCT022 BKN027 54 48     82%     30.04        
Jun 11 19:53 SW 13 10 Clear   58 46     65%     29.95 29.95   0  
Jun 10 23:53   10 Clear CLR 54 46     74%     29.94 29.94 0    
Jun 10 19:53   10 Mostly Clear FEW028 60 48     64%     29.93 29.93   0  
Jun 09 21:53   10 Mostly Cloudy BKN022 56 47     72%     29.98 29.98      
Jun 09 15:53 W 17 10 Cloudy OVC039 68 47     47%     29.94 29.93 0    
Jun 09 14:53 W 16 10 Light Rain SCT037 69 45     42%     29.95 29.94 0    
Jun 09 07:53 W 8 10 Cloudy OVC012 61 57     87%     29.93 29.92      
Jun 07 19:53 W 16 10 Light Rain CLR 61 49     64%     29.9 29.9 0 0  
Jun 07 12:53 SW 6 10 Clear CLR 72 46     40%   71 29.91 29.9      
Jun 07 09:53 WNW 8 10 Clear   65 51     61%     29.91 29.9      
Jun 06 12:53 WNW 11 10 Clear CLR 78 51     39%   77 29.9 29.89      
Jun 06 10:53 NW 8 10 Clear CLR 72 52     49%   71 29.91 29.9      
Jun 06 04:53 W 5 6 Fog/Mist CLR 51 49     92%     29.9 29.89